Regional Weather Roundup
Issued by NWS Kansas City/Pleasant Hill, MO

Home | Current Version | Previous Version | Text Only | Print | Product List | Glossary On
Versions: 1 2 3 4 5 6 7 8 9 10 11 12 13 14 15 16 17 18 19 20 21 22 23 24 25 26 27 28 29 30 31 32 33 34 35 36 37 38 39 40 41 42 43 44 45 46 47 48 49 50
000
ASUS43 KEAX 210304
RWREAX

WEATHER ROUNDUP FOR EASTERN KANSAS AND NORTHWEST MISSOURI
NATIONAL WEATHER SERVICE KANSAS CITY/PLEASANT HILL MO
1000 PM CDT MON OCT 20 2014

KSZ040-057-103>105-MOZ028-029-037-043-210400-
...KANSAS CITY METROPOLITAN AREA...

CITY           SKY/WX    TMP DP  RH WIND       PRES   REMARKS
K.C. INTL      CLEAR     61  42  49 E3        30.06R
K.C. DOWNTOWN  CLEAR     56  49  77 CALM      30.06R
LEES SUMMIT    CLEAR     57  44  62 CALM      30.07R
OLATHE - IXD   CLEAR     56  45  66 E3        30.07R
OLATHE - OJC   CLEAR     52  47  83 CALM      30.06R
LAWRENCE       CLEAR     46  43  89 NW5       30.07R

$$

MOZ001>008-011>017-020>025-030>033-038>040-044>046-053-054-210400-
...NORTHERN AND CENTRAL MISSOURI...

CITY           SKY/WX    TMP DP  RH WIND       PRES   REMARKS
ST. JOSEPH     CLEAR     47  43  86 CALM      30.07R
MOSBY          CLEAR     50  46  87 CALM      30.06R
WHITEMAN AFB   CLEAR     53  46  77 CALM      30.04S
CLINTON        CLEAR     52  48  87 CALM      30.06R
SEDALIA        CLEAR     61  42  49 NW3       30.07R
WARSAW         NOT AVBL
MARSHALL       CLEAR     54  48  82 CALM      30.07R
CHILLICOTHE      N/A     49  45  86 CALM      30.07R
MOBERLY        CLEAR     54  43  66 CALM      30.05S
KIRKSVILLE     CLEAR     45  43  93 W3        30.05R

$$

MOZ041-047>049-056>058-063>065-088>090-097-210400-
...EASTERN AND SOUTHERN MISSOURI...

CITY           SKY/WX    TMP DP  RH WIND       PRES   REMARKS
ST. LOUIS INTL CLEAR     57  44  62 CALM      30.03R
SPIRIT OF STL  CLEAR     48  46  93 CALM      30.03R
COLUMBIA       CLEAR     58  43  57 N7        30.05R
JEFFERSON CITY CLEAR     51  44  77 NW3       30.05R
MEXICO         CLEAR     52  48  87 NW3       30.04S
ROLLA          CLEAR     50  42  74 CALM      30.04R
LEBANON        CLEAR     57  48  72 CALM      30.07R
OSAGE BEACH    CLEAR     52  45  76 CALM      30.06R
SPRINGFIELD    CLEAR     55  51  86 CALM      30.06R
BRANSON        CLEAR     57  57 100 SW5       30.08R
NEVADA         CLEAR     57  50  77 CALM      30.07R
JOPLIN         CLEAR     58  55  90 CALM      30.07R
WEST PLAINS    CLEAR     56  54  93 SW3       30.06R

$$

IAZ060-094-KSZ022-034>040-054-083-096-NEZ052-066-093-210400-
...KANSAS...SOUTHEAST NEBRASKA AND IOWA...

CITY           SKY/WX    TMP DP  RH WIND       PRES   REMARKS
TOPEKA         CLEAR     51  46  83 CALM      30.08R
MANHATTAN      CLEAR     47  43  86 CALM      30.08R
EMPORIA        CLEAR     57  46  66 E3        30.07R
CHANUTE        CLEAR     54  50  86 CALM      30.07R
WICHITA        CLEAR     66  46  48 NE3       30.07R
OMAHA          CLEAR     52  43  71 CALM      30.07R
LINCOLN        CLEAR     43  38  82 CALM      30.09R
FALLS CITY     CLEAR     54  37  52 CALM      30.06R
LAMONI         CLEAR     52  42  69 W5        30.05S
DES MOINES     CLEAR     56  40  55 CALM      30.04R

$$



USA.gov is the U.S. government's official web portal to all federal, state and local government web resources and services.